Regional Weather Roundup
Issued by NWS

Home | Current Version | Previous Version | Graphics & Text | Print | Product List | Glossary On
Versions: 1 2 3 4 5 6 7 8 9 10 11 12 13 14 15 16 17 18 19 20 21 22 23 24 25 26 27 28 29 30 31 32 33 34 35 36 37 38 39 40 41 42 43 44 45 46 47 48 49 50
973
ASUS45 KBOU 191607
RWRCO

WEATHER ROUNDUP FOR COLORADO
NATIONAL WEATHER SERVICE DENVER/BOULDER CO
900 AM MST THU JAN 19 2017

NOTE: "FAIR" INDICATES FEW OR NO CLOUDS BELOW 12000 FEET WITH NO
SIGNIFICANT WEATHER AND/OR OBSTRUCTIONS TO VISIBILITY.

COZ001>005-013-030-031-191700-
...NORTHWEST COLORADO...

CITY           SKY/WX    TMP DP  RH WIND       PRES   REMARKS
CRAIG          FAIR       7   5  91 CALM      29.85R
HAYDEN         FAIR      14   7  73 E16       29.82S WCI  -2
MEEKER         FAIR      18  14  84 CALM      29.83S
MOUNT WERNER   NOT AVBL
STEAMBOAT SPGS FAIR       9   6  87 CALM      29.83S
WALDEN           N/A    N/A N/A N/A SE3       29.80S
$$

COZ006>008-011-191700-
...WEST CENTRAL VALLEYS...

CITY           SKY/WX    TMP DP  RH WIND       PRES   REMARKS
GRAND JUNCTION FAIR      30  26  85 E15       29.86S WCI  19
MONTROSE       FAIR      28  19  69 SE6       29.91S WCI  22
EAGLE          CLOUDY    10   9  92 CALM      29.94S FOG
RIFLE          FAIR      23  19  85 CALM      29.89S
DELTA          FAIR      32  22  67 E5        29.92R WCI  27
NUCLA          FAIR      32  19  59 SE7       29.92S WCI  26
$$

COZ017>023-064>068-191700-
...SOUTHWEST COLORADO...

CITY           SKY/WX    TMP DP  RH WIND       PRES   REMARKS
DURANGO        FOG       26  24  92 SE3       29.94R VSB 1/2
CORTEZ         FAIR      26  23  88 E3        29.93R
PAGOSA SPRINGS CLOUDY    25  25  98 CALM      29.93R
TELLURIDE      FAIR      22   9  57 NE3       29.88S
WOLF CREEK PAS   N/A     18  16  93 SW12      29.93S WCI   5
$$

COZ009-010-012-014-032>034-037-058>063-191700-
...CENTRAL COLORADO...

CITY           SKY/WX    TMP DP  RH WIND       PRES   REMARKS
ASPEN          FAIR      14   9  80 S5        29.83S WCI   6
BUENA VISTA    FAIR      10   6  83 CALM      29.77S
COPPER MTN     FAIR      30   0  27 S5        29.84S WCI  25
BERTHOUD PASS  NOT AVBL
COTTONWOOD PAS FAIR      36   3  25 W14G28    29.77S
GUNNISON       LGT SNOW   4   1  88 NE6       29.98S FOG     WCI  -7
KREMMLING      CLOUDY   N/A N/A N/A CALM      29.92S FOG
LEADVILLE      FAIR      19   4  51 CALM      29.79F
MONARCH PASS   FAIR      14   9  79 W10G28    29.93R WCI   1
SALIDA         FAIR      31  16  54 W8        29.84S WCI  23
SUNLIGHT       FAIR      18  12  79 S8        29.87S WCI   7
WILKERSON PASS FAIR      32  -2  23 NW9G21    29.81S WCI  24
$$

COZ069>075-191700-
...SAN LUIS VALLEY/SANGRE DE CRISTO MOUNTAINS...

CITY           SKY/WX    TMP DP  RH WIND       PRES   REMARKS
ALAMOSA        CLOUDY    20  19  96 W7        29.90R FOG     WCI  11
LA VETA PASS   CLOUDY    18  14  86 NE32G40   29.76R FOG     WCI  -3
SAGUACHE       CLOUDY    19  18  93 CALM      29.90R
$$

COZ035-036-038>040-191700-
...NORTHERN COLORADO FRONT RANGE...

CITY           SKY/WX    TMP DP  RH WIND       PRES   REMARKS
DENVER INTL AP FAIR      38  22  52 SE6       29.61R
DMNS CITY PARK   N/A     38  13  36 SE10      29.60S
AURORA         MOSUNNY   38  16  39 S10       29.61F
FRONT RANGE AP SUNNY     37  19  48 SE6       29.63R
ERIE MUNI ARPT FAIR      31  22  68 CALM      29.61S
BOULDER MUN AP FAIR      36  19  51 CALM      29.60S
CENTENNIAL     FAIR      33  17  51 SE5       29.62R WCI  29
BROOMFIELD     SUNNY     39  19  45 CALM      29.61S
FORT COLLINS   FAIR      27  21  80 N3        29.62S
LONGMONT       FAIR      35  22  61 CALM      29.62F
$$

COZ041-046-047-076>085-087-088-191700-
...PIKES PEAK/PALMER DIVIDE AND SOUTHERN FOOTHILLS...

CITY           SKY/WX    TMP DP  RH WIND       PRES   REMARKS
COLO. SPRINGS  FAIR      45  13  27 CALM      29.66R
A. F. ACADEMY  FAIR      34  15  45 N3        29.65S
SCHRIEVER AFB  NOT AVBL
ELLICOTT       FAIR     N/A N/A N/A CALM      29.63F
FALCON         FAIR      42  10  26 SW6       29.67S
FORT CARSON    SUNNY     41  14  33 N2        29.65F
LIMON          FAIR      34  23  64 NW3       29.63S
MONUMENT HILL  FAIR      34  14  44 SW7       29.67S WCI  28
TRINIDAD       FAIR      29  16  58 W13       29.66S WCI  19
$$

COZ042>045-048>051-090-091-191700-
...NORTHEAST COLORADO...

CITY           SKY/WX    TMP DP  RH WIND       PRES   REMARKS
GREELEY ARPT   FAIR      28  22  78 NW3       29.64
AKRON          FAIR      32  21  64 W12       29.61R WCI  23
BURLINGTON     FAIR      33  25  72 W8        29.61R WCI  26
WRAY           NOT AVBL
STERLING       FAIR      23  21  93 S6        29.62R WCI  16
HOLYOKE        FAIR      34  27  75 NW7       29.61S WCI  28
FORT MORGAN    FAIR      27  23  85 W6        29.62S WCI  20
$$

COZ086-089-092>099-191700-
...SOUTHEAST COLORADO...

CITY           SKY/WX    TMP DP  RH WIND       PRES   REMARKS
PUEBLO         FAIR      30  25  81 SE5       29.64S WCI  25
LA JUNTA       FAIR      27  22  81 W15       29.63S WCI  15
LAMAR          FAIR      24  21  88 W10       29.62R WCI  14
SPRINGFIELD      N/A     39  26  59 NW14      29.59R
$$




USA.gov is the U.S. government's official web portal to all federal, state and local government web resources and services.